• In Hungary
  • List of Countries
  • For 7 days
  • Water Temperature
  • Satellite Maps
  • Weather Map
  • News
  • Weather Widgets
  • user-avatar
    Login

    Hourly Weather Kuchkovo

    Today, 18 September, Tuesday

    Time Temperature Precipitation Wind Pressure Humidity
    00:00 +12°C° 0.1 mm 4 mps 745 mmHg 86%
    01:00 +12°C° 0.1 mm 4 mps 745 mmHg 87%
    02:00 +12°C° 0 mm 4 mps 744 mmHg 90%
    03:00 +12°C° 0.1 mm 4 mps 744 mmHg 91%
    04:00 +12°C° 0.1 mm 4 mps 744 mmHg 92%
    05:00 +12°C° 0.1 mm 4 mps 744 mmHg 92%
    06:00 +12°C° 0 mm 4 mps 744 mmHg 90%
    07:00 +12°C° 0 mm 5 mps 745 mmHg 87%
    08:00 +13°C° 0 mm 5 mps 745 mmHg 84%
    09:00 +13°C° 0 mm 5 mps 745 mmHg 81%
    10:00 +13°C° 0 mm 5 mps 745 mmHg 78%
    11:00 +13°C° 0 mm 5 mps 746 mmHg 75%
    12:00 +13°C° 0 mm 5 mps 746 mmHg 73%
    13:00 +14°C° 0 mm 5 mps 746 mmHg 70%
    14:00 +14°C° 0 mm 5 mps 746 mmHg 67%
    15:00 +14°C° 0 mm 4 mps 747 mmHg 69%
    16:00 +13°C° 0 mm 3 mps 747 mmHg 72%
    17:00 +14°C° 0 mm 2 mps 747 mmHg 74%
    18:00 +13°C° 0 mm 2 mps 747 mmHg 78%
    19:00 +12°C° 0 mm 2 mps 747 mmHg 83%
    20:00 +9°C° 0 mm 2 mps 748 mmHg 87%
    21:00 +9°C° 0 mm 2 mps 748 mmHg 89%
    22:00 +9°C° 0 mm 2 mps 748 mmHg 90%
    23:00 +9°C° 0 mm 2 mps 748 mmHg 92%

    Tomorrow, 19 September, Wednesday

    Time Temperature Precipitation Wind Pressure Humidity
    00:00 +9°C° 0 mm 2 mps 748 mmHg 92%
    01:00 +9°C° 0 mm 2 mps 748 mmHg 92%
    02:00 +9°C° 0 mm 2 mps 748 mmHg 92%
    03:00 +10°C° 0.1 mm 2 mps 748 mmHg 92%
    04:00 +10°C° 0.1 mm 2 mps 747 mmHg 91%
    05:00 +11°C° 0.1 mm 3 mps 747 mmHg 91%
    06:00 +12°C° 0 mm 3 mps 747 mmHg 90%
    07:00 +13°C° 0 mm 3 mps 747 mmHg 89%
    08:00 +14°C° 0 mm 4 mps 747 mmHg 87%
    09:00 +17°C° 0 mm 4 mps 747 mmHg 80%
    10:00 +18°C° 0 mm 4 mps 747 mmHg 72%
    11:00 +20°C° 0 mm 4 mps 747 mmHg 64%
    12:00 +21°C° 0 mm 4 mps 747 mmHg 61%
    13:00 +22°C° 0 mm 4 mps 746 mmHg 58%
    14:00 +23°C° 0 mm 4 mps 746 mmHg 55%
    15:00 +21°C° 0 mm 4 mps 746 mmHg 61%
    16:00 +20°C° 0 mm 3 mps 746 mmHg 67%
    17:00 +19°C° 0 mm 3 mps 746 mmHg 72%
    18:00 +18°C° 0 mm 3 mps 746 mmHg 77%
    19:00 +17°C° 0 mm 3 mps 746 mmHg 82%
    20:00 +16°C° 0 mm 3 mps 746 mmHg 87%
    21:00 +16°C° 0 mm 3 mps 746 mmHg 89%
    22:00 +14°C° 0 mm 3 mps 746 mmHg 91%
    23:00 +14°C° 0 mm 3 mps 746 mmHg 92%

    Day after tomorrow, 20 September, Thursday

    Time Temperature Precipitation Wind Pressure Humidity
    00:00 +14°C° 0 mm 3 mps 746 mmHg 93%
    01:00 +14°C° 0 mm 3 mps 746 mmHg 94%
    02:00 +14°C° 0 mm 3 mps 746 mmHg 95%
    03:00 +14°C° 0 mm 3 mps 746 mmHg 95%
    04:00 +14°C° 0 mm 3 mps 746 mmHg 96%
    05:00 +13°C° 0 mm 3 mps 746 mmHg 97%
    06:00 +14°C° 0 mm 3 mps 747 mmHg 93%
    07:00 +14°C° 0 mm 4 mps 747 mmHg 90%
    08:00 +15°C° 0 mm 4 mps 747 mmHg 86%
    09:00 +17°C° 0 mm 4 mps 748 mmHg 81%
    10:00 +18°C° 0 mm 4 mps 748 mmHg 75%
    11:00 +19°C° 0 mm 3 mps 748 mmHg 69%
    12:00 +20°C° 0 mm 3 mps 748 mmHg 66%
    13:00 +21°C° 0 mm 3 mps 748 mmHg 63%
    14:00 +22°C° 0 mm 3 mps 748 mmHg 60%
    15:00 +21°C° 0 mm 3 mps 748 mmHg 66%
    16:00 +20°C° 0 mm 2 mps 748 mmHg 71%
    17:00 +19°C° 0 mm 2 mps 748 mmHg 77%
    18:00 +18°C° 0 mm 2 mps 749 mmHg 81%
    19:00 +17°C° 0 mm 2 mps 749 mmHg 86%
    20:00 +15°C° 0 mm 2 mps 749 mmHg 90%
    21:00 +15°C° 0 mm 2 mps 749 mmHg 91%
    22:00 +15°C° 0 mm 2 mps 749 mmHg 92%
    23:00 +14°C° 0 mm 2 mps 749 mmHg 94%

    21 September, Friday

    Time Temperature Precipitation Wind Pressure Humidity
    00:00 +14°C° 0 mm 2 mps 749 mmHg 94%
    01:00 +14°C° 0 mm 1 mps 750 mmHg 94%
    02:00 +13°C° 0 mm 1 mps 750 mmHg 94%
    03:00 +13°C° 0 mm 1 mps 750 mmHg 95%
    04:00 +13°C° 0 mm 1 mps 750 mmHg 95%
    05:00 +13°C° 0 mm 1 mps 750 mmHg 95%
    06:00 +14°C° 0 mm 1 mps 750 mmHg 91%
    07:00 +15°C° 0 mm 1 mps 750 mmHg 87%
    08:00 +18°C° 0 mm 1 mps 750 mmHg 82%
    09:00 +18°C° 0 mm 2 mps 750 mmHg 76%
    10:00 +20°C° 0 mm 2 mps 750 mmHg 69%
    11:00 +23°C° 0 mm 2 mps 750 mmHg 63%
    12:00 +23°C° 0 mm 2 mps 750 mmHg 61%
    13:00 +24°C° 0 mm 2 mps 750 mmHg 59%
    14:00 +24°C° 0 mm 2 mps 750 mmHg 57%
    15:00 +23°C° 0 mm 2 mps 750 mmHg 63%
    16:00 +21°C° 0 mm 2 mps 750 mmHg 69%
    17:00 +20°C° 0 mm 2 mps 749 mmHg 76%
    18:00 +18°C° 0 mm 2 mps 749 mmHg 80%
    19:00 +17°C° 0 mm 2 mps 749 mmHg 84%
    20:00 +16°C° 0 mm 2 mps 749 mmHg 88%
    21:00 +16°C° 0 mm 2 mps 749 mmHg 89%
    22:00 +16°C° 0 mm 2 mps 749 mmHg 91%
    23:00 +15°C° 0 mm 2 mps 749 mmHg 92%

    22 September, Saturday

    Time Temperature Precipitation Wind Pressure Humidity
    00:00 +15°C° 0 mm 2 mps 749 mmHg 92%
    01:00 +15°C° 0 mm 2 mps 749 mmHg 93%
    02:00 +15°C° 0 mm 2 mps 749 mmHg 93%
    03:00 +15°C° 0 mm 2 mps 748 mmHg 94%
    04:00 +14°C° 0 mm 3 mps 748 mmHg 94%
    05:00 +14°C° 0 mm 3 mps 748 mmHg 94%
    06:00 +16°C° 0 mm 3 mps 748 mmHg 90%
    07:00 +17°C° 0 mm 4 mps 748 mmHg 85%
    08:00 +18°C° 0 mm 4 mps 748 mmHg 81%
    09:00 +20°C° 0 mm 4 mps 747 mmHg 74%
    10:00 +21°C° 0 mm 5 mps 747 mmHg 67%
    11:00 +23°C° 0 mm 5 mps 747 mmHg 60%
    12:00 +23°C° 0 mm 5 mps 747 mmHg 59%
    13:00 +25°C° 0 mm 5 mps 746 mmHg 57%
    14:00 +25°C° 0 mm 5 mps 746 mmHg 56%
    15:00 +23°C° 0 mm 5 mps 746 mmHg 61%
    16:00 +22°C° 0 mm 4 mps 745 mmHg 66%
    17:00 +21°C° 0 mm 3 mps 745 mmHg 71%
    18:00 +20°C° 0 mm 3 mps 745 mmHg 73%
    19:00 +19°C° 0 mm 4 mps 745 mmHg 75%
    20:00 +18°C° 0 mm 4 mps 744 mmHg 77%
    21:00 +18°C° 0 mm 4 mps 744 mmHg 78%
    22:00 +18°C° 0 mm 4 mps 744 mmHg 79%
    23:00 +17°C° 0 mm 4 mps 744 mmHg 80%

    23 September, Sunday

    Time Temperature Precipitation Wind Pressure Humidity
    00:00 +17°C° 0 mm 4 mps 744 mmHg 81%
    01:00 +17°C° 0 mm 4 mps 744 mmHg 82%
    02:00 +16°C° 0 mm 3 mps 743 mmHg 83%
    03:00 +16°C° 0 mm 3 mps 743 mmHg 84%
    04:00 +14°C° 0 mm 3 mps 743 mmHg 85%
    05:00 +14°C° 0 mm 3 mps 743 mmHg 86%
    06:00 +16°C° 0.1 mm 3 mps 743 mmHg 84%
    07:00 +16°C° 0.1 mm 3 mps 743 mmHg 81%
    08:00 +17°C° 0.1 mm 3 mps 743 mmHg 79%
    09:00 +18°C° 0.2 mm 3 mps 743 mmHg 76%
    10:00 +18°C° 0.2 mm 3 mps 744 mmHg 74%
    11:00 +19°C° 0.2 mm 2 mps 744 mmHg 71%
    12:00 +19°C° 0.1 mm 2 mps 744 mmHg 72%
    13:00 +19°C° 0.1 mm 2 mps 744 mmHg 73%
    14:00 +19°C° 0.1 mm 2 mps 744 mmHg 74%
    15:00 +17°C° 0.4 mm 3 mps 744 mmHg 78%
    16:00 +14°C° 0.4 mm 3 mps 745 mmHg 83%
    17:00 +13°C° 0.4 mm 3 mps 745 mmHg 88%
    18:00 +12°C° 0.4 mm 3 mps 745 mmHg 89%
    19:00 +11°C° 0.4 mm 3 mps 745 mmHg 91%
    20:00 +10°C° 0.4 mm 2 mps 746 mmHg 92%
    21:00 +10°C° 0.1 mm 2 mps 746 mmHg 92%
    22:00 +10°C° 0.1 mm 2 mps 746 mmHg 92%
    23:00 +10°C° 0.1 mm 2 mps 746 mmHg 91%
    Show more